GSAT0102 (GALILEO-FM2) (37847 NORAD) Tracking and Keplerian Element Data

This shows tracking and keplerian element data for the satellite.

Feedback or suggestion? Click here.




ElementValue
Catalog37847
NameGSAT0102 (GALILEO-FM2)
Epoch Orbit4408
Epoch Day323.44682035
Epoch Year2018
RAAN57.2017
Inclination56.2261
Eccentricity0.0003719
Argument of Perigee292.2288
Mean Anonmoly72.5014
Mean Motion1.70475708
Decay Rate-5.5E-07
L11 37847U 11060B 18323.44682035 -.00000055 00000-0 00000+0 0 9996
L22 37847 56.2261 57.2017 0003719 292.2288 72.5014 1.70475708 44082

Live tracking and technical data element details for GSAT0102 (GALILEO-FM2) (NORAD 37847). GSAT0102 (GALILEO-FM2) can be tracked NOW for your location showing map with azimuth and elevation plus other details from your city location.

Track the satellite on the map from your city or location and see movement details for azimuth, elevation, latitude, longitude, range, height, and movement on the map or in text.







IsCatalogInMostPopularTable: catalog: 37847, numindb: 52
Update: records affected: 1



GetName: 37847 GSAT0102 (GALILEO-FM2)

Hit Count: updated at: Wed, 21 Nov 2018 06:32:51 GMT